User: anonymous   Login
Location: Unspecified
(0.0000°N, 0.0000°E)
Time: 12:11:07
(UTC+00:00)
Language:

HESSI - Orbit

View from above orbital plane
View from above orbital plane
View from above satellite
View from above satellite

Ground track
Ground track

The orbit data is extracted from the following two-line orbital elements,

1 27370U 02004A   18289.17718323  .00002396  00000-0  83488-4 0  9990
2 27370  38.0330 321.0044 0012190  31.8070 328.3434 15.30677089920727
Epoch (UTC): 16 October 2018 04:15:08
Eccentricity: 0.0012190
inclination: 38.0330°
perigee height: 465 km
apogee height: 482 km
right ascension of ascending node: 321.0044°
argument of perigee: 31.8070°
revolutions per day: 15.30677089
mean anomaly at epoch: 328.3434°
orbit number at epoch: 92072

The dashed part of the orbit path shows where the satellite is in the earth's shadow,  

DLR